Regional Weather Roundup
Issued by NWS Wakefield, VA

Home | Current Version | Previous Version | Text Only | Print | Product List | Glossary Off
Versions: 1 2 3 4 5 6 7 8 9 10 11 12 13 14 15 16 17 18 19 20 21 22 23 24 25 26

000
ASUS41 KAKQ 271015
RWRAKQ

REGIONAL WEATHER ROUNDUP
NATIONAL WEATHER SERVICE WAKEFIELD VA
600 AM EDT SAT AUG 27 2016

Note: "fair" indicates few or no clouds below 12,000 feet with no
significant weather and/or obstructions to visibility. * = Denotes
station may not report precipitation (e.g., rain,snow,etc.),
thunder or fog.

VAZ042-051-052>054-056-271100-
NORTHERN VIRGINIA

CITY           SKY/WX    TMP DP  RH WIND       PRES   REMARKS
WASH NATIONAL  PTCLDY    80  70  71 NE6       30.13R
DULLES         PTCLDY    74  69  85 N3        30.14R
FORT BELVOIR   PTCLDY    73  72  95 CALM      30.13R
QUANTICO       NOT AVBL
FREDERICKSBRG* PTCLDY    75  75 100 CALM      30.12R
STAFFORD*      PTCLDY    73  72  97 CALM      30.17R FOG
WARRENTON      PTCLDY    74  65  74 NE3       30.14R
CULPEPER*      CLEAR     73  71  94 N3        30.15R
MANASSAS*      MOCLDY    73  72  94 CALM      30.14R
LEESBURG*      CLEAR     73  70  88 N7        30.16R
WINCHESTER     PTCLDY    68  64  88 CALM      30.17R
FRONT ROYAL*   FAIR      68  68 100 CALM      30.16R
LURAY*         FOG      N/A N/A N/A CALM      30.18R VSB<1/4
$$

VAZ048-049-060>072-079>083-271100-
CENTRAL AND SOUTH CENTRAL VIRGINIA

CITY           SKY/WX    TMP DP  RH WIND       PRES   REMARKS
RICHMOND       PTCLDY    76  73  91 NE7       30.10R
CHESTERFIELD*  PTSUNNY   79  63  57 CALM      30.12R
PETERSBURG*    PTCLDY   N/A N/A N/A CALM      30.10R
HANOVER        PTCLDY    75  73  93 CALM      30.12R
TAPPAHANNOCK*  CLEAR     74  74 100 CALM      30.12R FOG
QUINTON*       CLOUDY    76  75  95 N5        30.10R
CHARLOTTSVILLE CLEAR     73  71  93 W3        30.14R
GORDONSVILLE*  FAIR      72  72 100 CALM      30.13R
ORANGE*          N/A     73  72  94 CALM      30.16R
LOUISA*        CLEAR     79  75  89 CALM      30.13R
BUMPASS*       FAIR      74  74 100 CALM      30.12R
FARMVILLE*     CLEAR    N/A N/A N/A CALM      30.10S HAZE
CREWE*         FAIR      75  75 100 N3        30.10R
FORT PICKETT*  NOT AVBL
CHASE CITY*    FAIR      73  72  95 N3        30.10S
CLARKSVILLE*   FAIR      72  72 100 CALM      30.09R
SOUTH HILL*    CLEAR     71  71  99 CALM      30.15R
LAWRENCEVILLE* FAIR      73  73 100 CALM      30.09R
EMPORIA*       CLEAR     72  72 100 CALM      30.10R FOG
$$

VAZ088>098-271100-
SOUTHEAST VIRGINIA

CITY           SKY/WX    TMP DP  RH WIND       PRES   REMARKS
NORFOLK        PTCLDY    79  75  87 CALM      30.08R
VIRGINIA BEACH PTCLDY    78  73  84 CALM      30.08R
NORFOLK NAVAL  MOCLDY    79  75  87 CALM      30.10R
WEST POINT*    MOCLDY    76  73  90 CALM      30.11R
SALUDA*        FAIR      76  76  99 CALM      30.09R
NEWPORT NEWS   MOCLDY    78  75  90 CALM      30.09R
LANGLEY AFB    PTCLDY    79  75  89 N1        30.08R
FORT EUSTIS    MOCLDY    79  75  88 E1        30.06R
WILLIAMSBURG*  PTCLDY    79  75  89 CALM      30.10R
HR EXEC AP*    FAIR      73  72  94 NE3       30.11R
FRANKLIN*      PTCLDY    74  73  95 CALM      30.09R
US460-WAKEFLD  PTCLDY    75  73  93 CALM      30.09R FOG
$$

VAZ020-022-025-037-045-271100-
WEST CENTRAL AND SOUTHWEST VIRGINIA

CITY           SKY/WX    TMP DP  RH WIND       PRES   REMARKS
STAUNTON*      MOCLDY    65  65  99 CALM      30.21R FOG
WAYNESBORO*    FAIR      68  67  97 CALM      30.21R
HOT SPRINGS VA CLEAR     69  65  88 E7        30.31R
LYNCHBURG      CLEAR     72  71  97 N5        30.16R
DANVILLE       CLEAR     71  71 100 CALM      30.11R FOG
SOUTH BOSTON*  FAIR      72  70  95 CALM      30.10R
MARTINSVILLE   CLEAR     66  65  97 CALM      30.16R FOG
ROANOKE        CLEAR     72  70  93 CALM      30.18R
BLACKSBURG     FOG       68  68 100 CALM      30.25R VSB 1/4
DUBLIN*        PTCLDY    67  67 100 CALM      30.23R FOG
MARION*        CLEAR     63  62  96 CALM      30.26R
HILLSVILLE*    CLEAR     66  66 100 CALM      30.23S FOG
RICHLANDS*     FAIR      68  67  98 E3        30.23S
WISE*          PTCLDY    70  66  88 CALM      30.23R
ABINGDON*      CLEAR     70  68  95 E8        30.19S
$$

MDZ021>025-VAZ099-100-271100-
SOUTHERN MARYLAND AND THE DELMARVA PENINSULA

CITY           SKY/WX    TMP DP  RH WIND       PRES   REMARKS
PATUXENT RIVER MOCLDY    77  69  76 NE6       30.11R
BAY BRIDGE APT CLEAR     77  70  78 NE5       30.12R
LEONARDTOWN    CLOUDY    75  70  83 CALM      30.13R
DOVER          CLEAR     69  69 100 N6        30.11R
GEORGETOWN     CLEAR     72  69  90 CALM      30.12R
EASTON         CLEAR     73  71  93 E5        30.15S
CAMBRIDGE      PTCLDY    72  68  88 CALM      30.11R
SALISBURY      CLEAR     73  69  87 CALM      30.11R
OCEAN CITY     CLEAR     77  67  71 N9        30.10R
WALLOPS ISLAND CLEAR     76  63  64 N5        30.10R
ACCOMACK*      PTCLDY    73  70  93 N3        30.09R FOG
$$

NCZ012>017-030>032-271100-
NORTH CENTRAL AND EASTERN NORTH CAROLINA

CITY           SKY/WX    TMP DP  RH WIND       PRES   REMARKS
ROANOKE RAPIDS FAIR      72  72 100 CALM      30.08S FOG
RALEIGH        PTCLDY    77  73  87 CALM      30.10R
ELIZABETH CITY MOCLDY    76  74  93 CALM      30.09R
AHOSKIE*       CLEAR     72  71  98 CALM      30.09R FOG
EDENTON*       MOCLDY    79  79 100 SW3       30.10R
CURRITUCK*       N/A     77  77  99 SW3       30.10R
KILL DEVIL HLS PTCLDY    78  75  92 SW5       30.08R
MANTEO         PTCLDY    77  75  92 W5        30.10R
CAPE HATTERAS  CLEAR     76  72  87 W3        30.09R
TARBORO*       FAIR      74  73  96 CALM      30.09S
GOLDSBORO      PTCLDY    74  74 100 SE3       30.08R
WASHINGTON     PTCLDY    75  72  90 SW5       30.10R
GREENVILLE     PTCLDY    73  73 100 CALM      30.11R
NEW BERN       PTCLDY    72  70  93 CALM      30.11R
WILMINGTON     CLEAR     72  70  93 CALM      30.09R
$$

VAZ048-271100-
ELSEWHERE

CITY           SKY/WX    TMP DP  RH WIND       PRES   REMARKS
HARRISBURG PA  PTCLDY    70  69  97 N5        30.15R
BALTIMORE      CLEAR     71  68  90 CALM      30.13R
ANNAPOLIS      CLEAR     79  72  79 CALM      30.12R
ANDREWS AFB    CLEAR     74  69  84 E2        30.13R
PHILADELPHIA   CLEAR     74  64  71 N7        30.14R
HENDERSON NC   CLEAR     72  71  98 CALM      30.10R FOG
GREENSBORO     CLEAR     75  72  90 NE3       30.11S
ROCKY MOUNT    CLEAR     74  74 100 S3        30.09R
$$

VAZ100-271100-
MARINE

STATION/POSITION TIME  TEMP    WIND        PRES    WAVE   SWELL
                       AIR SEA DIR/SP/G            HT/PER HT/PER
                 (UTC) (F)     (DEG/KT/KT) (MB)    (FT/S) (FT/S)
BRANDYWINE LGT   0900   78      40/ 12/ 14   N/A
CAPE MAY NJ      0900   76 76   30/  5/  8 1018.7R
LEWES DE         0900   77 76   20/  3/  4 1019.1R
OCEAN-CITY-INLET 0900   78 72   20/  5/  6 1019.2R
WACHAPREAGUE VA  0900   77 83  310/  2/  3 1018.6R
THOMAS POINT MD  1000   80 83   50/  8/  9 1021.4R
GOOSES REEF MD   1000   82 83   80/ 10/ 14 1020.3R   1/ 3
COVE POINT MD    0900   81      80/ 10/ 14 1019.6R
SOLOMONS ISLAND  0900   81 84   30/  5/  7   N/A
PINEY POINT MD   0900          110/  2/  2   N/A
POTOMAC MD       1000   83 83   60/ 10/ 12 1018.5R   1
CAMBRIDGE MD     0900   80 84   50/  6/  8 1018.5R
LEWISETTA VA     0900   83 84   70/  6/  7 1018.6R
RAPPAHANNOCK LGT 0900           40/  8/  8 1019.1R
STINGRAY PT      1000   85 83  360/ 10/ 12 1019.5R
YORK RVR RNG VA  0900   83      70/  5/  5 1018.1R
YORKTOWN VA      0900   81 83   CALM  /  2 1018.1R
JAMESTOWN VA     1000   79 85   30/  2/  4   N/A     0
DOMINION TERM VA 0900   82     240/  3/  3 1018.4R
KIPTOPEKE VA     0900      81  360/  2/  2   N/A
CHES BAY BRIDGE  0900   81 79  230/  2/  3 1018.3R
CAPE HENRY VA    0900   79     240/  5/  6   N/A
WILLOUBY STN VA  0900   81      CALM  /  1   N/A
CAPE HENRY BUOY  0912      78                N/A     2/ 8
1ST LANDING BUOY 1000   80 80  270/  4/  4 1018.5R   1/ 4
CAPE CHARLES BUO 0956      78                N/A     2/ 8
OFFSHORE WE BUOY 0921      79                N/A     2/ 8
64NM E OF VA BCH 0950   80 80  260/ 10/ 12 1018.4R   2/ 8   2/ 8
DUCK PIER NC     0900   80 74  240/ 10/ 12 1017.9R
44100 DUCK FRF   0905      78                N/A     2/11
44056 DUCK FRF   0911      79                N/A     2/ 8
OREGON INLET NC  0900   80 81  250/  8/  9 1018.6R
HATTERAS NC      0900   79 83  230/  4/  5 1018.5R
DIAMOND SHLS NC  0950   81 85  270/  4/  6 1019.1R   2/10   2/10
CAPE LOOKOUT NC  1000   80        CALM     1018.7R
$$




USA.gov is the U.S. government's official web portal to all federal, state and local government web resources and services.